Regional Weather Roundup
Issued by NWS Wakefield, VA

Home | Current Version | Previous Version | Graphics & Text | Print | Product List | Glossary On
Versions: 1 2 3 4 5 6 7 8 9 10 11 12 13 14 15 16 17 18 19 20 21 22 23 24 25 26 27 28 29
000
ASUS41 KAKQ 300510
RWRAKQ

REGIONAL WEATHER ROUNDUP
NATIONAL WEATHER SERVICE WAKEFIELD VA
100 AM EDT THU OCT 30 2014

Note: "fair" indicates few or no clouds below 12,000 feet with no
significant weather and/or obstructions to visibility. * = Denotes
station may not report precipitation (e.g., rain,snow,etc.),
thunder or fog.

VAZ042-051-052>054-056-300600-
NORTHERN VIRGINIA

CITY           SKY/WX    TMP DP  RH WIND       PRES   REMARKS
WASH NATIONAL  CLEAR     51  47  86 SW3       30.00S
DULLES         CLEAR     44  43  96 CALM      30.00S
FORT BELVOIR   CLEAR     45  43  93 CALM      30.00S FOG
QUANTICO       CLEAR     48  46  93 NW5       30.01S
FREDERICKSBRG* CLEAR     47  47 100 CALM      30.00S
STAFFORD*        N/A     41  41 100 CALM      30.04S FOG
WARRENTON      FOG       41  41 100 CALM      29.99S VSB 1/4
CULPEPER*      FOG       43  43 100 CALM      30.01S VSB 1/4
MANASSAS*      CLOUDY    45  45 100 CALM      30.00S VSB 1/4
LEESBURG*      CLEAR     45  45 100 CALM      30.00S
WINCHESTER     CLEAR     45  36  70 NW3       30.00S
FRONT ROYAL*   CLEAR     43  41  93 CALM      30.00R
LURAY*         PTCLDY    41  41 100 CALM      30.01S
$$

VAZ048-049-060>072-079>083-300600-
CENTRAL AND SOUTH CENTRAL VIRGINIA...AND NORTH CENTRAL NORTH CAROLINA

CITY           SKY/WX    TMP DP  RH WIND       PRES   REMARKS
RICHMOND       MOCLDY    54  52  93 W5        30.00R
CHESTERFIELD*  CLOUDY    54  43  66 CALM      30.01S
PETERSBURG*    LGT RAIN  54  52  92 NW5       30.01R
HANOVER        MOCLDY    51  50  96 CALM      30.01F FOG
TAPPAHANNOCK*  PTCLDY    51  48  89 CALM      30.00F
CHARLOTTSVILLE FOG       46  45  96 S5        30.00S VSB 1/4
ORANGE*        FOG       43  43 100 CALM      30.02R VSB 1/2
LOUISA*        FOG       45  45 100 CALM      29.99S VSB 1/4
FARMVILLE*     CLOUDY    54  54 100 CALM      30.00R FOG
CREWE*         CLOUDY    55  53  92 CALM      30.01R
FORT PICKETT*  NOT AVBL
LUNENBURG*     NOT AVBL
SOUTH HILL*    RAIN      57  57 100 CALM      30.06S
LAWRENCEVILLE* CLOUDY    54  54  98 CALM      30.02R
ROANOKE RAPIDS DRIZZLE   54  54 100 N5        30.00F
RALEIGH        MOCLDY    56  47  71 N6        30.00F
$$

VAZ088>098-300600-
SOUTHEAST VIRGINIA

CITY           SKY/WX    TMP DP  RH WIND       PRES   REMARKS
NORFOLK        RAIN      57  51  80 NE9       29.98S
VIRGINIA BEACH LGT RAIN  56  50  80 N9        29.98R
NORFOLK NAVAL  CLOUDY    58  51  78 NE10      29.99F
WEST POINT*    MOCLDY    55  52  91 CALM      29.99S
NEWPORT NEWS   CLOUDY    58  52  80 NE7       29.97F
LANGLEY AFB    CLOUDY    56  55  99 NE6       29.97F
FORT EUSTIS    CLOUDY    55  55 100 E3        29.95F
WILLIAMSBURG*  MOCLDY    55  54  94 CALM      29.98F
HR EXEC AP*    CLOUDY    54  50  87 NE7       30.00F
FRANKLIN*      CLOUDY    54  54 100 E6        29.98S
WAKEFIELD      CLOUDY    54  51  90 CALM      29.97F
$$

VAZ020-022-025-037-045-300600-
WEST CENTRAL AND SOUTHWEST VIRGINIA

CITY           SKY/WX    TMP DP  RH WIND       PRES   REMARKS
STAUNTON*      CLEAR     38  34  84 CALM      30.03R
HOT SPRINGS VA CLEAR     43  32  65 W15G23    29.98F
LYNCHBURG      PTCLDY    43  39  86 W3        30.02S
DANVILLE       CLOUDY    57  46  66 N5        30.02F
SOUTH BOSTON*  NOT AVBL
MARTINSVILLE   CLOUDY    47  43  85 CALM      30.05S
ROANOKE        CLEAR     50  36  58 CALM      30.04S
BLACKSBURG     CLEAR     39  39 100 CALM      30.06S
DUBLIN*        CLEAR     43  38  83 SW3       30.06S
MARION*        CLEAR     43  41  93 W7        30.08F
HILLSVILLE*    CLEAR     44  42  91 NW10      30.05S
RICHLANDS*     CLEAR     48  42  80 W6        30.08S
WISE*          CLEAR     45  32  61 W3        30.09S
ABINGDON*      CLEAR     42  42  98 CALM      30.09S FOG
$$

MDZ021>025-VAZ099-100-300600-
SOUTHERN MARYLAND AND THE DELMARVA PENINSULA

CITY           SKY/WX    TMP DP  RH WIND       PRES   REMARKS
PATUXENT RIVER CLOUDY    52  50  93 W5        29.99S
BAY BRIDGE APT   N/A     48  48 100 CALM      29.99S
LEONARDTOWN    CLOUDY    50  46  87 CALM      30.01S
DOVER          PTCLDY    49  49  99 SW2       29.97R
GEORGETOWN     MOCLDY    54  48  80 CALM      30.00R
EASTON         PTCLDY    49  49 100 CALM      30.03S
CAMBRIDGE      MOCLDY    52  48  87 CALM      29.99S
SALISBURY      CLOUDY    56  50  80 CALM      29.98F
OCEAN CITY     LGT RAIN  53  50  89 CALM      29.99R
WALLOPS ISLAND LGT RAIN  53  49  86 NE5       29.99F
ACCOMACK*      LGT RAIN  52  48  87 NE7       29.98F
$$

NCZ012>017-030>032-300600-
EASTERN NORTH CAROLINA

CITY           SKY/WX    TMP DP  RH WIND       PRES   REMARKS
ELIZABETH CITY CLOUDY    58  52  80 N16G24    29.96F
AHOSKIE*       NOT AVBL
EDENTON*       LGT RAIN  57  56  97 NE8       29.96S
CURRITUCK*     DRIZZLE   56  52  86 N10G16    29.98F
KILL DEVIL HLS DRIZZLE   60  58  94 N14G21    29.95S
MANTEO         CLOUDY    60  58  93 N16       29.95F
CAPE HATTERAS  CLOUDY    71  67  87 W9        29.92F
TARBORO*       CLOUDY    59  57  93 N5        29.99S
GOLDSBORO      CLOUDY    61  60  98 N1        29.96S
WASHINGTON     CLOUDY    60  57  91 N3        29.95F
GREENVILLE     DRIZZLE   59  59 100 NW5       29.99R
NEW BERN       LGT RAIN  66  62  87 N5        29.95S
WILMINGTON     CLOUDY    68  65  90 CALM      29.93F
$$

VAZ048-300600-
ELSEWHERE

CITY           SKY/WX    TMP DP  RH WIND       PRES   REMARKS
HARRISBURG PA  FOG       47  47 100 CALM      29.97F VSB 1/4
BALTIMORE      CLEAR     45  44  97 W3        29.99S
ANNAPOLIS      CLEAR     49  47  93 CALM      29.99S
ANDREWS AFB    CLEAR     46  46  99 S2        29.99S
WILMINGTON DE  FOG       45  44  97 NW3       29.99S VSB 1/2
PHILADELPHIA   PTCLDY    50  47  89 CALM      29.98S
WILDWOOD NJ*   CLOUDY    55  46  71 CALM      30.00R
ATLANTIC CITY  PTCLDY    50  47  89 W3        29.98R
HENDERSON NC   RAIN      53  47  78 N7        30.01F
GREENSBORO     MOCLDY    55  50  83 CALM      30.02S
ROCKY MOUNT    CLOUDY    58  56  93 N6        30.00S
FAYETTEVILLE   CLOUDY    62  50  64 N14       29.98S
CHARLOTTE      MOCLDY    58  41  53 N7        30.02S
$$

VAZ100-300600-
MARINE

STATION/POSITION TIME  TEMP    WIND        PRES    WAVE   SWELL
                       AIR SEA DIR/SP/G            HT/PER HT/PER
                 (UTC) (F)     (DEG/KT/KT) (MB)    (FT/S) (FT/S)
44066 TX TWR #4  0500   59 65  330/ 16/ 19 1013.0R   5/ 6
CAPE MAY NJ      0500   57 65  320/  3/  7 1014.9R
LEWES DE         0500   57 61  320/  7/  9 1015.1F
15NM E FENWICK I 0500   59 64              1014.9R   2/ 4
OCEAN-CITY-INLET 0500   55 63  330/  5/  6 1015.0F
WACHAPREAGUE VA  0500   54 64   40/  4/  6 1015.2F
THOMAS POINT MD  0500   55 62   CALM  /  1 1016.7R
GOOSES REEF MD   0500   58        CALM     1016.3S
COVE POINT MD    0500   56      CALM  /  2 1015.6S
SOLOMONS ISLAND  0500      63                N/A
BISHOPS HEAD MD  0500   56 62   40/  3/  5 1015.0S
PINEY POINT MD   0500           50/  3/  3   N/A
POTOMAC MD       0500   59      70/  4/  6 1015.0R
CAMBRIDGE MD     0500   53 61  210/  2/  3 1015.4S
LEWISETTA VA     0500   58 62   CALM  /  2 1014.9F
RAPPAHANNOCK LGT 0500           30/ 10/ 11 1015.6S
STINGRAY PT      0500   58      60/ 10/ 12 1015.7R
YORK RVR RNG VA  0500   58      70/ 12/ 13 1014.2F
YORKTOWN VA      0500   57 64   70/  8/ 10 1014.4F
JAMESTOWN VA     0500   54     140/  2/  4   N/A
DOMINION TERM VA 0500   55      40/  4/  6 1015.1S
KIPTOPEKE VA     0500      67   60/  7/ 11   N/A
CHES BAY BRIDGE  0500   57 64   20/ 15/ 18 1014.5S
CHESAPEAKE LGHT  0400   60      10/ 26/ 28 1015.1F
WILLOUBY STN VA  0500   57      40/ 16/ 18 1013.6S
S CRANEY ISL VA  0500           10/ 11/ 13 1014.9S
CAPE HENRY BUOY  0400      65                N/A     4/ 4
1ST LANDING BUOY 0500   57      10/ 17/ 19 1015.0S
CAPE CHARLES BUO 0500      66                N/A     4/ 4   2/ 7
64NM E OF VA BCH 0500   62 67   10/ 19/ 25 1013.0R   4/ 4
DUCK PIER NC     0500   60 68  340/ 17/ 23 1013.7S
44100 DUCK FRF   0400      67                N/A     4/ 4
OREGON INLET NC  0500   65 68  350/ 13/ 19 1013.7S
HATTERAS NC      0500   72 72  230/  8/ 13 1013.5F
DIAMOND SHLS NC  0500   75     230/ 16/ 19 1013.1F   4/ 5
CAPE LOOKOUT NC  0400   72     230/  8/ 10 1013.5F
$$



USA.gov is the U.S. government's official web portal to all federal, state and local government web resources and services.